User: anonymous   Login
Location: Unspecified
(0.0000°N, 0.0000°E)
Time: 10:50:20
(UTC+01:00)
Language:

ARIANE 5 R/B - Orbit

View from above orbital plane
View from above orbital plane
View from above satellite
View from above satellite

Ground track
Ground track

The orbit data is extracted from the following two-line orbital elements,

1 27510U 02040C   14302.54975463 -.00000080  00000-0  00000+0 0   915
2 27510 005.0255 223.7323 7157991 317.9712 005.4056 02.27181814101045
Epoch (UTC): 29 October 2014 13:11:38
Eccentricity: 0.7157991
inclination: 5.0255°
perigee height: 568 km
apogee height: 35560 km
right ascension of ascending node: 223.7323°
argument of perigee: 317.9712°
revolutions per day: 2.27181814
mean anomaly at epoch: 5.4056°
orbit number at epoch: 10104

The dashed part of the orbit path shows where the satellite is in the earth's shadow,  

DLR